Flag for France Weather past 2 weeks in Chalon-sur-Saône, France

Now
45 °F

Overcast.


Feels Like: 41 °F
Forecast: 39 / 53 °F
Wind: 7 mph from Southwest

Location: Dole Tavaux

Current Time: Mar 27, 2015 at 1:00:34 AM

Latest Report: Mar 27, 2015 at 12:30 AM


Visibility: N/A

Pressure: 29.98 "Hg

Humidity: 81%

Dew point: 39 °F

Location of Chalon-sur-SaôneLocation

Historic Weather in Chalon-sur-Saône — Graph

°F

Chalon-sur-Saône temperature yesterday

Maximum temperature yesterday: 50 °F (at 1:00 PM)
Minimum temperature yesterday: 41 °F (at 12:00 AM)
Average temperature yesterday: 44 °F

Past Weeks' High & Low Weather Summary

 TemperatureHumidityPressure
High68 °F (Mar 18, 4:00 PM)100% (Mar 21, 8:00 AM)30.30 "Hg (Mar 21, 8:00 AM)
Low27 °F (Mar 13, 6:00 AM)21% (Mar 12, 3:30 PM)29.65 "Hg (Mar 24, 5:00 PM)
Average46 °F72%30.05 "Hg
* Reported Midnight between Mar 11 and Mar 12 — Midnight between Mar 26 and Mar 27, Chalon-sur-Saône, Weather by CustomWeather, © 2015

Note: Actual official high and low records may vary slightly from our data, if they occured in-between our weather recording intervals... More about our weather records

Advertising

Chalon-sur-Saône weather history for previous 24 hours

 ConditionsComfort  
Time TempWeatherWind HumidityBarometerVisibility
12:00 AM
Fri, Mar 27
43 °FOvercast.7 mph87%29.98 "HgN/A
11:30 PM
Thu, Mar 26
43 °FOvercast.6 mph87%29.98 "HgN/A
11:00 PM43 °FOvercast.7 mph87%29.98 "HgN/A
10:30 PM45 °FLight rain. Overcast.5 mph81%29.98 "HgN/A
10:00 PM45 °FLight rain. Overcast.6 mph76%29.95 "HgN/A
9:30 PM45 °FOvercast.6 mph76%29.95 "HgN/A
9:00 PM45 °FOvercast.6 mph71%29.95 "HgN/A
8:30 PM45 °FMostly cloudy.8 mph71%29.95 "HgN/A
8:00 PM45 °FMostly cloudy.9 mph71%29.95 "HgN/A
7:30 PM45 °FLight rain. Mostly cloudy.12 mph76%29.92 "HgN/A
7:00 PM46 °FDrizzle. Mostly cloudy.8 mph62%29.92 "HgN/A
6:30 PM46 °FOvercast.7 mph62%29.92 "HgN/A
6:00 PM46 °FMostly cloudy.8 mph62%29.89 "HgN/A
5:30 PM46 °FClear.12 mph57%29.89 "HgN/A
5:00 PM48 °FPartly sunny.12 mph50%29.89 "HgN/A
4:30 PM50 °FMostly cloudy.12 mph50%29.89 "HgN/A
4:00 PM50 °FMostly cloudy.12 mph54%29.86 "HgN/A
3:30 PM50 °FBroken clouds.10 mph58%29.86 "HgN/A
3:00 PM50 °FPartly sunny.9 mph54%29.86 "HgN/A
2:30 PM50 °FPartly sunny.9 mph58%29.86 "HgN/A
2:00 PM50 °FClear.7 mph50%29.86 "HgN/A
1:30 PM50 °FPassing clouds.10 mph50%29.89 "HgN/A
1:00 PM50 °FPartly sunny.6 mph58%29.89 "HgN/A
12:30 PM48 °FClear.6 mph58%29.89 "HgN/A
12:00 PM48 °FClear.5 mph66%29.89 "HgN/A
11:30 AM48 °FPartly sunny.3 mph62%29.89 "HgN/A
11:00 AM45 °FMostly cloudy.2 mph71%29.92 "HgN/A
10:30 AM45 °FOvercast.3 mph76%29.92 "HgN/A
10:00 AM45 °FMostly cloudy.5 mph76%29.92 "HgN/A
9:30 AM43 °FMostly cloudy.5 mph81%29.92 "HgN/A
9:00 AM43 °FBroken clouds.6 mph81%29.92 "HgN/A
8:30 AM43 °FBroken clouds.6 mph81%29.92 "HgN/A
8:00 AM41 °FOvercast.6 mph87%29.89 "HgN/A
7:30 AM41 °FOvercast.5 mph87%29.89 "HgN/A
7:00 AM41 °FOvercast.5 mph87%29.89 "HgN/A
6:30 AM41 °FOvercast.3 mph87%29.89 "HgN/A
6:00 AM41 °FOvercast.5 mph87%29.89 "HgN/A
5:30 AM41 °FOvercast.5 mph87%29.89 "HgN/A
5:00 AM41 °FOvercast.5 mph87%29.86 "HgN/A
4:30 AM41 °FMostly cloudy.5 mph87%29.86 "HgN/A
4:00 AM41 °FOvercast.3 mph87%29.86 "HgN/A
3:30 AM41 °FPassing clouds.5 mph87%29.86 "HgN/A
3:00 AM41 °FOvercast.5 mph87%29.86 "HgN/A
2:30 AM41 °FOvercast.5 mph87%29.86 "HgN/A
2:00 AM41 °FLight rain. Overcast.5 mph87%29.83 "HgN/A
1:30 AM41 °FLight rain. Overcast.5 mph87%29.86 "HgN/A
1:00 AM41 °FDrizzle. Overcast.5 mph87%29.83 "HgN/A
Weather by CustomWeather, © 2015

See weather overviewHow to use our weather pages